Вернуться в каталог

INTELSAT 33E DEB

АктивенGEO
NORAD 61992·DEBRIS· XX

Запущен Aug 24, 2016 с Guiana Space Centre

Loading…

TLE

СвежийSource: Space-Track

Эпоха: Sep 13, 2026, 10:23 UTC

1 61992U 16053J   26256.43277676 -.00000289  00000-0  00000+0 0  9994
2 61992   1.7837  82.5851 0037946 317.7587  42.7549  1.00799724  7008

Отслеживайте INTELSAT 33E DEB в реальном времени с AllMySat

Download on the App Store